Flag for U.S.A. Weather past 2 weeks in Breckenridge, Colorado, U.S.A.

Now
25 °F

Low clouds.


Feels Like: N/A
Forecast: 26 / 35 °F
Wind: N/A

Location: Copper Mountain - Red Cliff Pass

Current Time: Dec 21, 2014 at 3:37:28 PM

Latest Report: Dec 21, 2014 at 3:15 PM


Visibility: N/A

Pressure: 29.72 "Hg

Humidity: 80%

Dew point: 19 °F

Location of BreckenridgeLocation

Historic Weather in Breckenridge — Graph

°F

Breckenridge temperature yesterday

Maximum temperature yesterday: 25 °F (at 10:55 AM)
Minimum temperature yesterday: 18 °F (at 12:35 AM)
Average temperature yesterday: 21 °F

Past Weeks' High & Low Weather Summary

 TemperatureHumidityPressure
High46 °F (Dec 12, 12:15 PM)80% (Dec 6, 8:35 PM)30.51 "Hg (Dec 6, 8:35 PM)
Low10 °F (Dec 15, 6:55 AM)2% (Dec 8, 7:55 PM)29.68 "Hg (Dec 21, 1:55 PM)
Average26 °F54%30.17 "Hg
* Reported Dec 6 2:15 PM — Dec 21 2:15 PM, Breckenridge, Weather by CustomWeather, © 2014

Note: Actual official high and low records may vary slightly from our data, if they occured in-between our weather recording intervals... More about our weather records

Advertising

Breckenridge weather history for previous 24 hours

 ConditionsComfort  
Time TempWeatherWind HumidityBarometerVisibility
2:15 PM
Dec 21
25 °FLow clouds.39 mph80%29.73 "HgN/A
1:55 PM25 °FLow clouds.N/A80%29.68 "HgN/A
1:35 PM23 °FLow clouds.N/A80%29.75 "HgN/A
1:15 PM23 °FLow clouds.N/A80%29.77 "HgN/A
12:55 PM23 °FLow clouds.22 mph80%29.78 "HgN/A
12:35 PM23 °FLow clouds.18 mph80%29.79 "HgN/A
12:15 PM23 °FLow clouds.22 mph80%29.80 "HgN/A
11:55 AM23 °FLow clouds.28 mph80%29.80 "HgN/A
11:35 AM23 °FLow clouds.20 mph80%29.82 "HgN/A
11:15 AM23 °FLow clouds.24 mph80%29.81 "HgN/A
10:55 AM23 °FLow clouds.24 mph80%29.83 "HgN/A
10:35 AM23 °FLow clouds.26 mph80%29.84 "HgN/A
10:15 AM23 °FLow clouds.25 mph80%29.85 "HgN/A
9:55 AM21 °FLow clouds.20 mph80%29.87 "HgN/A
9:35 AM21 °FLow clouds.N/A80%29.89 "HgN/A
9:15 AM21 °FMostly cloudy.N/A74%29.89 "HgN/A
8:55 AM21 °FMostly cloudy.23 mph80%29.85 "HgN/A
8:35 AM21 °FLow clouds.18 mph74%29.86 "HgN/A
8:15 AM19 °FLow clouds.30 mph79%29.85 "HgN/A
7:55 AM19 °FCloudy.33 mph79%29.87 "HgN/A
7:35 AM19 °FMostly cloudy.24 mph79%29.89 "HgN/A
7:15 AM19 °FLow clouds.24 mph79%29.89 "HgN/A
6:55 AM19 °FLow clouds.24 mph79%29.91 "HgN/A
6:35 AM19 °FMostly cloudy.17 mph79%29.92 "HgN/A
6:15 AM19 °FOvercast.17 mph79%29.91 "HgN/A
5:55 AM19 °FMostly cloudy.20 mph79%29.90 "HgN/A
5:35 AM19 °FMostly cloudy.15 mph79%29.91 "HgN/A
5:15 AM19 °FMostly cloudy.18 mph79%29.91 "HgN/A
4:55 AM19 °FMostly cloudy.17 mph79%29.93 "HgN/A
4:35 AM19 °FOvercast.15 mph79%29.94 "HgN/A
4:15 AM19 °FMostly cloudy.13 mph79%29.94 "HgN/A
3:55 AM19 °FLow clouds.9 mph79%29.95 "HgN/A
3:35 AM19 °FMostly cloudy.14 mph79%29.96 "HgN/A
3:15 AM19 °FMostly cloudy.12 mph79%29.96 "HgN/A
2:55 AM19 °FMostly cloudy.16 mph79%29.98 "HgN/A
2:35 AM19 °FMostly cloudy.24 mph79%29.99 "HgN/A
2:15 AM19 °FLow clouds.28 mph79%29.99 "HgN/A
1:55 AM19 °FLow clouds.23 mph79%30.00 "HgN/A
1:35 AM19 °FLow clouds.24 mph79%29.99 "HgN/A
1:15 AM19 °FLow clouds.21 mph79%29.99 "HgN/A
12:55 AM19 °FLow clouds.20 mph79%29.99 "HgN/A
12:35 AM19 °FLow clouds.23 mph79%29.98 "HgN/A
12:15 AM19 °FLow clouds.23 mph79%29.99 "HgN/A
11:55 PM
Dec 20
19 °FLow clouds.24 mph79%29.99 "HgN/A
11:35 PM19 °FMostly cloudy.29 mph79%29.99 "HgN/A
11:15 PM19 °FLow clouds.26 mph79%30.00 "HgN/A
10:55 PM19 °FLow clouds.29 mph79%29.99 "HgN/A
10:35 PM19 °FLow clouds.31 mph79%29.99 "Hg1 mi
10:15 PM19 °FLight snow. Low clouds.24 mph79%29.99 "Hg1 mi
9:55 PM19 °FLight snow. Mostly cloudy.31 mph79%29.98 "Hg1 mi
9:35 PM19 °FLight snow. Mostly cloudy.30 mph79%29.98 "Hg1 mi
9:15 PM19 °FLight snow. Low clouds.21 mph79%29.99 "Hg1 mi
8:55 PM19 °FLight snow. Low clouds.18 mph79%30.00 "Hg1 mi
8:35 PM19 °FLight snow. Low clouds.10 mph79%30.00 "Hg1 mi
7:55 PM19 °FLight snow. Low clouds.6 mph79%30.00 "Hg1 mi
7:35 PM19 °FLight snow. Low clouds.6 mph79%30.01 "Hg1 mi
7:15 PM19 °FLight snow. Overcast.10 mph79%30.02 "Hg2 mi
6:55 PM19 °FLight snow. Overcast.12 mph79%30.02 "Hg2 mi
6:35 PM19 °FLight snow. Overcast.13 mph79%30.02 "Hg2 mi
6:15 PM19 °FLight snow. Mostly cloudy.9 mph79%30.03 "Hg2 mi
5:55 PM19 °FOvercast.14 mph79%30.03 "Hg10 mi
5:35 PM19 °FLight snow. Mostly cloudy.15 mph79%30.03 "Hg7 mi
5:15 PM19 °FLight snow. Mostly cloudy.13 mph79%30.03 "Hg5 mi
4:55 PM19 °FLight snow. Mostly cloudy.21 mph79%30.03 "Hg3 mi
4:35 PM19 °FLight snow. Low clouds.N/A79%30.04 "Hg1 mi
4:15 PM21 °FLight snow. Low clouds.17 mph80%30.04 "Hg0 mi
3:55 PM23 °FLight snow. Low clouds.21 mph80%30.03 "Hg1 mi
3:35 PM23 °FLight snow. Low clouds.18 mph80%30.04 "Hg3 mi
3:15 PM23 °FLight snow. Mostly cloudy.20 mph80%30.04 "Hg5 mi
Weather by CustomWeather, © 2014

See weather overviewHow to use our weather pages